Regional Weather Roundup
Issued by NWS

Home | Current Version | Previous Version | Graphics & Text | Print | Product List | Glossary On
Versions: 1 2 3 4 5 6 7 8 9 10 11 12 13 14 15 16 17 18 19 20 21 22 23 24 25 26 27 28 29 30 31 32 33 34 35 36 37 38 39 40 41 42 43 44 45 46 47 48 49 50
164
ASUS43 KIND 280459
RWRIN

WEATHER ROUNDUP FOR INDIANA
NATIONAL WEATHER SERVICE INDIANAPOLIS IN
100 AM EDT SAT MAY 28 2016

NOTE: "FAIR" INDICATES FEW OR NO CLOUDS BELOW 12,000 FEET WITH NO
SIGNIFICANT WEATHER AND/OR OBSTRUCTIONS TO VISIBILITY.

* - STATION DOES NOT REPORT WEATHER SUCH AS PRECIPITATION OR FOG.

+ - STATION NOT QUALITY CONTROLLED BY THE NATIONAL WEATHER SERVICE.
    USE DATA WITH CAUTION...ESPECIALLY DEWPOINT AND RELATIVE
    HUMIDITY OBSERVATIONS.

INZ001>003-010>013-019-020-280600-
NORTHWEST INDIANA

CITY           SKY/WX    TMP DP  RH WIND       PRES   REMARKS
RENSSELAER +   CLOUDY    68  64  88 S5        29.93S

$$

LMZ046-743>745-280600-
SOUTHERN LAKE MICHIGAN

STATION/POSITION TIME  TEMP    WIND        PRES    WAVE
                       AIR SEA DIR/SP/G            HT
                 (UTC) (F)     (DEG/KT/KT) (MB)    (FT)
BURNS HARBOR     0401   71     190/ 15/ 23 1013.2R
MICHIGAN CITY    0400   72     170/ 17/ 20   N/A
5NW MICH CITY    0400   68 59  200/ 14/ 19   N/A     1

$$

INZ004-005-014>016-021>024-280600-
NORTH CENTRAL INDIANA

CITY           SKY/WX    TMP DP  RH WIND       PRES   REMARKS
GOSHEN         CLOUDY    73  58  59 SE7       29.95S
SOUTH BEND     CLOUDY    71  65  81 SW10      29.95S

$$

INZ006>009-017-018-025>027-280600-
NORTHEAST INDIANA

CITY           SKY/WX    TMP DP  RH WIND       PRES   REMARKS
ANGOLA *+        N/A     73  64  73 S3        29.98S
FORT WAYNE     PTCLDY    72  62  71 S8        29.99R

$$

INZ028-029-035-036-043>045-051>053-280600-
WEST CENTRAL INDIANA

CITY           SKY/WX    TMP DP  RH WIND       PRES   REMARKS
CRAWFORDSVL +  CLOUDY    71  62  75 SE9       29.94S
GREENCASTLE +  CLOUDY    70  64  83 SE6       29.96S
LAFAYETTE      CLOUDY    69  65  86 E3        29.93S
TERRE HAUTE    CLEAR     72  61  68 SE7       29.93S

$$

INZ030>032-037>040-046>048-054>057-064-065-280600-
CENTRAL INDIANA

CITY           SKY/WX    TMP DP  RH WIND       PRES   REMARKS
FRANKFORT +      N/A     74  51  43 CALM      29.97S
INDIANAPOLIS   MOCLDY    74  62  66 SE8       29.95S
-EAGLE CREEK   PTCLDY    76  61  59 SE6       29.96S
KOKOMO *+      CLOUDY    73  59  60 S9        29.96S
SHELBYVILLE    CLOUDY    76  64  66 SE8       29.98S

$$

INZ033-034-041-042-049-050-058-059-280600-
EAST CENTRAL INDIANA

CITY           SKY/WX    TMP DP  RH WIND       PRES   REMARKS
MUNCIE         CLEAR     76  63  64 S6        30.00R

$$

INZ060-061-067>069-081>083-085>088-280600-
SOUTHWEST INDIANA

CITY           SKY/WX    TMP DP  RH WIND       PRES   REMARKS
EVANSVILLE     CLOUDY    76  63  64 SE6       29.93S
HUNTINGBURG *+ CLOUDY    75  64  69 SE8       29.96S

$$

INZ062-063-066-070>080-084-089>092-280600-
SOUTH CENTRAL AND SOUTHEAST INDIANA

CITY           SKY/WX    TMP DP  RH WIND       PRES   REMARKS
BLOOMINGTON    CLOUDY    74  63  68 SE8       29.96F
MADISON *+     CLOUDY    70  61  73 SE5       30.03F
SEYMOUR +      CLOUDY    75  64  69 SE10      29.98S

$$





USA.gov is the U.S. government's official web portal to all federal, state and local government web resources and services.